Regional Weather Roundup
Issued by NWS Nashville, TN

Home | Current Version | Previous Version | Text Only | Print | Product List | Glossary On
Versions: 1 2 3 4 5 6 7 8 9 10 11 12 13 14 15 16 17 18 19 20 21 22 23 24 25 26 27 28
000
ASUS44 KOHX 271010
RWROHX
MIDDLE TENNESSEE HOURLY WEATHER ROUNDUP
NATIONAL WEATHER SERVICE NASHVILLE TN
500 AM CDT MON MAR 27 2017

NOTE: "FAIR" INDICATES FEW OR NO CLOUDS BELOW 12,000 FEET WITH
NO SIGNIFICANT WEATHER AND/OR OBSTRUCTIONS TO VISIBILITY.

* THESE REPORTS ARE NOT UNDER NWS QUALITY CONTROL AND MAY NOT
  REPORT WEATHER SUCH AS PRECIPITATION AND FOG.


TNZ005>011-023>034-057-059-062>066-078-080-271100
...NORTHERN MIDDLE TENNESSEE...

CITY           SKY/WX    TMP DP  RH WIND       PRES   REMARKS
CLARKSVILLE    CLOUDY    53  49  86 E3        29.93R
CROSSVILLE     PTCLDY    56  52  86 S3        30.02S
GALLATIN       PTCLDY    54  52  94 CALM      29.97S
NASHVILLE      MOCLDY    58  54  86 S5        29.94S
PORTLAND       CLEAR     54  54 100 CALM      29.94S
SMYRNA         PTCLDY    55  53  93 CALM      29.96R
SPARTA         MOCLDY    59  54  82 S6        29.97R
SPRINGFIELD    CLOUDY    54  52  94 SE5       29.92S
WEST NASHVILLE CLEAR     52  52 100 CALM      29.94R
$$
TNZ056-058-060-061-075>077-079-093>097-271100
...SOUTHERN MIDDLE TENNESSEE...

CITY           SKY/WX    TMP DP  RH WIND       PRES   REMARKS
COLUMBIA       MOCLDY   N/A N/A N/A SW13      29.93R
FAYETTEVILLE   CLEAR     61  59  94 S7        29.99R
MCMINNVILLE    CLEAR     50  50 100 CALM      29.98S
SHELBYVILLE    CLEAR     61  57  88 S7        29.98R
TULLAHOMA      CLEAR     55  54  94 S5        29.99S
WINCHESTER     CLEAR     61  57  88 S5        29.99S
$$


...KEY TO REMARKS...
VSB - VISIBILITY IN MILES
WCI - WIND CHILL INDEX
HX  - HEAT INDEX





USA.gov is the U.S. government's official web portal to all federal, state and local government web resources and services.